TimeCDT,TemperatureF,Dew PointF,Humidity,Sea Level PressureIn,VisibilityMPH,Wind Direction,Wind SpeedMPH,Gust SpeedMPH,PrecipitationIn,Events,Conditions,WindDirDegrees,DateUTC
12:53 AM,57.9,46.9,67,29.77,10.0,South,8.1,-,N/A,,Clear,180,2014-06-16 05:53:00
1:53 AM,64.9,48.0,54,29.75,10.0,South,13.8,-,N/A,,Clear,190,2014-06-16 06:53:00
2:53 AM,68.0,48.0,49,29.74,10.0,South,19.6,29.9,N/A,,Clear,180,2014-06-16 07:53:00
3:53 AM,66.0,48.9,54,29.72,10.0,South,17.3,-,N/A,,Clear,170,2014-06-16 08:53:00
4:53 AM,64.9,50.0,58,29.72,10.0,South,17.3,-,N/A,,Clear,180,2014-06-16 09:53:00
5:53 AM,64.9,53.1,65,29.68,10.0,South,15.0,-,N/A,,Clear,180,2014-06-16 10:53:00
6:53 AM,66.9,55.9,68,29.68,10.0,South,15.0,-,N/A,,Clear,190,2014-06-16 11:53:00
7:53 AM,71.1,59.0,66,29.62,10.0,South,26.5,34.5,N/A,,Clear,180,2014-06-16 12:53:00
8:53 AM,73.9,63.0,68,29.62,10.0,South,21.9,29.9,N/A,,Clear,170,2014-06-16 13:53:00
9:31 AM,75.0,66.0,73,29.65,10.0,South,31.1,39.1,N/A,,Mostly Cloudy,180,2014-06-16 14:31:00
9:53 AM,75.9,66.9,74,29.61,10.0,South,20.7,34.5,N/A,,Overcast,190,2014-06-16 14:53:00
10:53 AM,73.9,66.0,76,29.64,10.0,SSW,13.8,-,N/A,,Overcast,200,2014-06-16 15:53:00
11:53 AM,64.0,57.0,78,29.66,10.0,NE,16.1,-,N/A,,Overcast,50,2014-06-16 16:53:00
12:35 PM,69.1,61.0,75,29.66,10.0,ENE,12.7,-,N/A,,Overcast,60,2014-06-16 17:35:00
12:53 PM,71.1,63.0,75,29.62,10.0,East,12.7,-,N/A,,Mostly Cloudy,90,2014-06-16 17:53:00
1:50 PM,75.2,66.2,73,29.62,10.0,East,16.1,-,N/A,,Mostly Cloudy,80,2014-06-16 18:50:00
1:53 PM,75.9,66.9,74,29.58,10.0,East,17.3,-,N/A,,Mostly Cloudy,90,2014-06-16 18:53:00
2:21 PM,73.0,64.9,76,29.62,10.0,ENE,20.7,-,N/A,,Mostly Cloudy,70,2014-06-16 19:21:00
2:53 PM,72.0,64.9,78,29.57,10.0,East,19.6,-,N/A,,Scattered Clouds,80,2014-06-16 19:53:00
3:53 PM,77.0,69.1,76,29.53,10.0,East,12.7,-,N/A,,Scattered Clouds,80,2014-06-16 20:53:00
4:53 PM,80.1,70.0,71,29.51,10.0,ENE,12.7,-,N/A,,Clear,70,2014-06-16 21:53:00
5:53 PM,80.1,71.1,74,29.51,10.0,ENE,11.5,-,N/A,,Clear,70,2014-06-16 22:53:00
6:53 PM,80.1,71.1,74,29.52,10.0,North,9.2,-,N/A,,Clear,10,2014-06-16 23:53:00
7:46 PM,77.0,70.0,79,29.59,10.0,NE,13.8,-,N/A,,Mostly Cloudy,40,2014-06-17 00:46:00
7:53 PM,77.0,70.0,79,29.54,10.0,NE,11.5,-,N/A,,Mostly Cloudy,40,2014-06-17 00:53:00
8:07 PM,75.9,69.1,79,29.58,10.0,NE,12.7,-,N/A,,Mostly Cloudy,50,2014-06-17 01:07:00
8:22 PM,75.0,69.1,82,29.59,10.0,NE,9.2,-,N/A,,Scattered Clouds,50,2014-06-17 01:22:00
8:45 PM,75.0,69.1,82,29.60,10.0,ENE,10.4,-,N/A,,Mostly Cloudy,70,2014-06-17 01:45:00
8:53 PM,72.0,66.9,84,29.57,10.0,East,15.0,-,N/A,,Overcast,90,2014-06-17 01:53:00
9:06 PM,71.1,66.9,87,29.61,10.0,East,10.4,-,N/A,,Mostly Cloudy,80,2014-06-17 02:06:00
9:11 PM,70.0,66.0,87,29.61,10.0,East,9.2,-,N/A,,Scattered Clouds,80,2014-06-17 02:11:00
9:53 PM,68.0,64.9,90,29.58,10.0,East,5.8,-,N/A,,Clear,100,2014-06-17 02:53:00
10:53 PM,64.9,63.0,93,29.61,8.0,NNW,6.9,-,N/A,,Clear,330,2014-06-17 03:53:00
11:53 PM,64.9,63.0,93,29.64,8.0,East,3.5,-,N/A,,Clear,90,2014-06-17 04:53:00